New Braunfels, TX

10:49 PM CST on December 15, 2017 (GMT -0600)
New Braunfels Municipal

Weather History for KBAZ - January, 2013

Change the Weather History Date:

Friday, January 25, 2013

  Actual Average (KRND) Record (KRND)
Temperature  
Mean Temperature 69 °F -  
Max Temperature 79 °F 61 °F 78 °F (2013)
Min Temperature 59 °F 42 °F 29 °F (2014)
Cooling Degree Days 4    
Growing Degree Days 19 (Base 50)    
Moisture  
Dew Point 59 °F    
Average Humidity 78    
Maximum Humidity 96    
Minimum Humidity 48    
Precipitation  
Precipitation 0.00 in - - ()
Sea Level Pressure  
Sea Level Pressure 30.09 in    
Wind  
Wind Speed 8 mph (SSW)    
Max Wind Speed 14 mph    
Max Gust Speed 18 mph    
Visibility 10 miles    
Events      
Averages and records for this station are not official NWS values.
T = Trace of Precipitation, MM = Missing Value Source: NWS Daily Summary

Daily Weather History Graph

Daily Weather History Graph

Search for Another Location

Airport or City:

Trip Planner

Search our weather history database for the weather conditions in past years. The results will help you decide how hot, cold, wet, or windy it might be!

Date:

Astronomy

Jan. 25, 2013 Rise Set
Actual Time 7:25 AM CST 6:04 PM CST
Civil Twilight 7:00 AM CST 6:29 PM CST
Nautical Twilight 6:31 AM CST 6:58 PM CST
Astronomical Twilight 6:02 AM CST 7:26 PM CST
Moon 5:02 PM CST (1/25) 6:05 AM CST (1/25)
Length of Visible Light 11h 29m
Length of Day
10h 38m
Waxing Gibbous, 98% of the Moon is Illuminated
Jan 25
Waxing Gibbous
Jan 26
Full
Feb 3
Last Quarter
Feb 10
New
Feb 17
First Quarter

Hourly Weather History & Observations

Time (CST) Temp. Dew Point Humidity Pressure Visibility Wind Dir Wind Speed Gust Speed Precip Events Conditions
12:17 AM 59.0 °F 57.2 °F 94% 30.14 in 10.0 mi SSW 5.8 mph - N/A   Mostly Cloudy
12:39 AM 59.0 °F 57.2 °F 94% 30.14 in 8.0 mi South 5.8 mph - N/A   Overcast
12:51 AM 60.1 °F 59.0 °F 96% 30.12 in 7.0 mi South 4.6 mph - N/A   Overcast
1:05 AM 60.8 °F 59.0 °F 94% 30.13 in 8.0 mi SSW 3.5 mph - N/A   Overcast
1:51 AM 62.1 °F 60.1 °F 93% 30.12 in 7.0 mi SW 6.9 mph - N/A   Overcast
2:51 AM 63.0 °F 61.0 °F 93% 30.10 in 8.0 mi SSW 9.2 mph - N/A   Overcast
3:40 AM 64.4 °F 60.8 °F 88% 30.11 in 10.0 mi SW 11.5 mph - N/A   Overcast
3:51 AM 63.0 °F 61.0 °F 93% 30.09 in 10.0 mi SW 12.7 mph - N/A   Overcast
5:51 AM 63.0 °F 60.1 °F 90% 30.09 in 10.0 mi SSW 8.1 mph - N/A   Overcast
6:04 AM 62.6 °F 60.8 °F 94% 30.10 in 10.0 mi SSW 8.1 mph - N/A   Overcast
6:51 AM 63.0 °F 59.0 °F 87% 30.10 in 10.0 mi SSW 4.6 mph - N/A   Overcast
7:51 AM 63.0 °F 60.1 °F 90% 30.11 in 10.0 mi SSW 6.9 mph - N/A   Overcast
8:51 AM 64.0 °F 60.1 °F 87% 30.12 in 10.0 mi SSW 9.2 mph - N/A   Overcast
9:51 AM 66.0 °F 60.1 °F 81% 30.14 in 10.0 mi SSW 13.8 mph - N/A   Overcast
10:51 AM 66.9 °F 60.1 °F 79% 30.14 in 9.0 mi SSW 12.7 mph - N/A   Overcast
11:51 AM 69.1 °F 60.1 °F 73% 30.12 in 10.0 mi SW 11.5 mph - N/A   Overcast
12:26 PM 73.4 °F 60.8 °F 65% 30.11 in 10.0 mi SSW 13.8 mph 18.4 mph N/A   Scattered Clouds
12:51 PM 73.0 °F 60.1 °F 64% 30.09 in 10.0 mi SW 11.5 mph - N/A   Clear
1:51 PM 77.0 °F 60.1 °F 56% 30.05 in 10.0 mi South 11.5 mph - N/A   Clear
2:51 PM 78.1 °F 59.0 °F 52% 30.03 in 10.0 mi SW 5.8 mph 16.1 mph N/A   Clear
3:51 PM 79.0 °F 57.9 °F 48% 30.01 in 10.0 mi South 10.4 mph - N/A   Clear
4:51 PM 77.0 °F 57.9 °F 52% 30.01 in 10.0 mi South 8.1 mph - N/A   Clear
5:51 PM 73.9 °F 57.9 °F 57% 30.02 in 10.0 mi SW 4.6 mph - N/A   Clear
6:51 PM 66.9 °F 55.9 °F 68% 30.03 in 10.0 mi ESE 3.5 mph - N/A   Clear
7:51 PM 68.0 °F 57.0 °F 68% 30.03 in 10.0 mi SSE 3.5 mph - N/A   Clear
8:51 PM 68.0 °F 59.0 °F 73% 30.04 in 10.0 mi SSE 8.1 mph - N/A   Clear
9:51 PM 66.9 °F 61.0 °F 81% 30.08 in 10.0 mi South 8.1 mph - N/A   Clear
10:39 PM 66.2 °F 60.8 °F 83% 30.12 in 10.0 mi NE 4.6 mph - N/A   Mostly Cloudy
10:51 PM 66.9 °F 61.0 °F 81% 30.11 in 10.0 mi East 5.8 mph - N/A   Overcast